No particular awareness of the weather is required.    There are no Weather-warnings


Meteo18 Weather Cam more information Meteo18 Weather Cam


Thunder radar more information blitzortung!


Rain radar more information rain snow radar


Visit our other weather sites:

Template documentation
and downloads

And another site



Weather Underground History page Text

Daily Summary for August 3, 2017 Units:  English    Metric   Both
« Previous Day
Next Day »
Daily Weekly Monthly Yearly Custom
  High: Low: Average:
Temperature: TemperatureC °F 16.9 °F 21.7 °F
Dew Point: DewpointC °F 15.2 °F 17 °F
Humidity: Humidity % 59 % 75 %
Wind Speed: WindSpeedKMH mph 0.0 mph 9.1 mph
Wind Gust: WindSpeedGustKMH mph - -
Wind:- - WSW
Pressure: PressurehPa in 1016.1 in -
Precipitation: 0.0 in    
Historical Graphs
 
 
Tabular Data for August 3, 2017
Time Temperature Dew Point Pressure Wind Wind Speed Wind Gust Humidity Rainfall Rate (Hourly)
TemperatureC °F DewpointC °F PressurehPa in Calm     Humidity % HourlyPrecipMM in
00:02 22.3 °F 18.9 °F 1016.8 in Calm   1.6 mph 81 % 0.0 in
00:07 22.7 °F 18.5 °F 1016.5 in WNW 3.2 mph 4.8 mph 77 % 0.0 in
00:12 22.9 °F 18.2 °F 1016.5 in Calm   4.8 mph 75 % 0.0 in
00:17 23.0 °F 18.1 °F 1016.5 in Calm   4.8 mph 74 % 0.0 in
00:22 22.9 °F 18.0 °F 1016.5 in Calm   4.8 mph 74 % 0.0 in
00:27 23.1 °F 18.0 °F 1016.5 in Calm   4.8 mph 73 % 0.0 in
00:32 23.1 °F 17.8 °F 1016.5 in Calm   1.6 mph 72 % 0.0 in
00:37 23.1 °F 17.6 °F 1016.5 in Calm   1.6 mph 71 % 0.0 in
00:42 23.2 °F 17.4 °F 1016.5 in West 1.6 mph 3.2 mph 70 % 0.0 in
00:47 23.3 °F 17.5 °F 1016.8 in Calm   3.2 mph 70 % 0.0 in
00:52 23.2 °F 17.4 °F 1016.8 in West 3.2 mph 3.2 mph 70 % 0.0 in
01:02 23.1 °F 17.1 °F 1016.8 in WSW 1.6 mph 4.8 mph 69 % 0.0 in
01:07 22.9 °F 16.9 °F 1016.8 in West 3.2 mph 6.4 mph 69 % 0.0 in
01:12 22.9 °F 16.9 °F 1016.8 in WNW 4.8 mph 8.0 mph 69 % 0.0 in
01:17 22.9 °F 16.7 °F 1016.8 in West 3.2 mph 8.0 mph 68 % 0.0 in
01:22 22.8 °F 16.8 °F 1016.8 in WNW 3.2 mph 9.7 mph 69 % 0.0 in
01:27 22.7 °F 16.7 °F 1016.8 in NW 4.8 mph 9.7 mph 69 % 0.0 in
01:32 22.6 °F 16.6 °F 1016.8 in West 1.6 mph 8.0 mph 69 % 0.0 in
01:42 22.6 °F 16.6 °F 1016.8 in Calm   6.4 mph 69 % 0.0 in
01:47 22.5 °F 16.3 °F 1016.8 in Calm   6.4 mph 68 % 0.0 in
01:52 22.4 °F 16.4 °F 1016.8 in Calm   6.4 mph 69 % 0.0 in
01:57 22.3 °F 16.3 °F 1016.8 in Calm   3.2 mph 69 % 0.0 in
02:02 22.2 °F 16.5 °F 1016.5 in Calm   1.6 mph 70 % 0.0 in
02:07 22.0 °F 16.5 °F 1016.5 in Calm   3.2 mph 71 % 0.0 in
02:12 21.7 °F 16.4 °F 1016.8 in Calm   3.2 mph 72 % 0.0 in
02:17 21.5 °F 16.7 °F 1016.8 in Calm   3.2 mph 74 % 0.0 in
02:22 21.1 °F 16.5 °F 1016.8 in Calm   1.6 mph 75 % 0.0 in
02:27 20.7 °F 16.7 °F 1016.8 in Calm   1.6 mph 78 % 0.0 in
02:32 20.4 °F 16.6 °F 1016.8 in Calm   1.6 mph 79 % 0.0 in
02:37 20.6 °F 16.4 °F 1016.8 in Calm   1.6 mph 77 % 0.0 in
02:42 20.9 °F 16.3 °F 1016.8 in Calm   1.6 mph 75 % 0.0 in
02:47 21.1 °F 16.3 °F 1016.8 in Calm   1.6 mph 74 % 0.0 in
02:52 21.0 °F 16.4 °F 1016.8 in Calm     75 % 0.0 in
02:57 20.6 °F 16.4 °F 1016.8 in Calm     77 % 0.0 in
03:02 20.6 °F 16.2 °F 1016.8 in Calm     76 % 0.0 in
03:07 20.6 °F 16.2 °F 1016.8 in Calm     76 % 0.0 in
03:12 20.6 °F 16.2 °F 1016.8 in Calm     76 % 0.0 in
03:17 20.6 °F 16.2 °F 1016.8 in Calm     76 % 0.0 in
03:22 20.5 °F 16.1 °F 1016.8 in Calm     76 % 0.0 in
03:27 20.3 °F 16.1 °F 1016.8 in Calm     77 % 0.0 in
03:32 20.1 °F 16.3 °F 1016.8 in Calm     79 % 0.0 in
03:37 19.9 °F 16.3 °F 1016.8 in Calm     80 % 0.0 in
03:42 19.8 °F 16.2 °F 1016.8 in Calm     80 % 0.0 in
03:47 19.7 °F 16.3 °F 1016.8 in Calm   3.2 mph 81 % 0.0 in
03:52 19.5 °F 16.3 °F 1016.8 in Calm   3.2 mph 82 % 0.0 in
03:57 19.1 °F 16.3 °F 1016.8 in Calm   3.2 mph 84 % 0.0 in
04:02 18.9 °F 16.1 °F 1016.8 in Calm   1.6 mph 84 % 0.0 in
04:07 18.7 °F 16.1 °F 1016.8 in Calm     85 % 0.0 in
04:12 18.7 °F 16.1 °F 1016.8 in Calm   1.6 mph 85 % 0.0 in
04:17 18.6 °F 16.0 °F 1016.8 in Calm   3.2 mph 85 % 0.0 in
04:22 18.4 °F 15.8 °F 1016.8 in Calm   3.2 mph 85 % 0.0 in
04:32 18.3 °F 15.9 °F 1016.5 in Calm   1.6 mph 86 % 0.0 in
04:37 18.2 °F 15.8 °F 1016.5 in Calm   1.6 mph 86 % 0.0 in
04:42 18.1 °F 15.9 °F 1016.5 in Calm   1.6 mph 87 % 0.0 in
04:47 18.1 °F 15.9 °F 1016.5 in Calm   1.6 mph 87 % 0.0 in
04:52 18.1 °F 15.9 °F 1016.5 in Calm   1.6 mph 87 % 0.0 in
04:57 18.1 °F 15.9 °F 1016.5 in Calm   3.2 mph 87 % 0.0 in
05:02 18.1 °F 15.9 °F 1016.5 in Calm   3.2 mph 87 % 0.0 in
05:07 17.9 °F 15.7 °F 1016.5 in Calm   1.6 mph 87 % 0.0 in
05:12 17.9 °F 15.9 °F 1016.5 in ESE 1.6 mph 3.2 mph 88 % 0.0 in
05:22 17.6 °F 15.6 °F 1016.5 in South 1.6 mph 3.2 mph 88 % 0.0 in
05:27 17.5 °F 15.7 °F 1016.5 in SSW 1.6 mph 4.8 mph 89 % 0.0 in
05:32 17.4 °F 15.6 °F 1016.5 in SW 3.2 mph 4.8 mph 89 % 0.0 in
05:37 17.4 °F 15.6 °F 1016.5 in SW 3.2 mph 6.4 mph 89 % 0.0 in
05:42 17.5 °F 15.7 °F 1016.8 in SW 1.6 mph 6.4 mph 89 % 0.0 in
05:47 17.6 °F 15.8 °F 1016.8 in Calm   6.4 mph 89 % 0.0 in
05:52 17.6 °F 15.6 °F 1016.8 in Calm   4.8 mph 88 % 0.0 in
05:57 17.7 °F 15.7 °F 1016.8 in Calm   4.8 mph 88 % 0.0 in
06:02 17.5 °F 15.5 °F 1016.8 in SSW 1.6 mph 3.2 mph 88 % 0.0 in
06:12 17.3 °F 15.5 °F 1016.8 in Calm   3.2 mph 89 % 0.0 in
06:17 17.2 °F 15.4 °F 1017.2 in South 1.6 mph 3.2 mph 89 % 0.0 in
06:22 17.1 °F 15.4 °F 1017.2 in SSW 3.2 mph 4.8 mph 90 % 0.0 in
06:27 17.1 °F 15.4 °F 1017.2 in SSW 1.6 mph 4.8 mph 90 % 0.0 in
06:32 17.0 °F 15.3 °F 1017.2 in Calm   4.8 mph 90 % 0.0 in
06:37 16.9 °F 15.2 °F 1017.2 in Calm   4.8 mph 90 % 0.0 in
06:42 17.1 °F 15.6 °F 1017.2 in WSW 3.2 mph 3.2 mph 91 % 0.0 in
06:52 17.3 °F 15.5 °F 1017.2 in SW 1.6 mph 6.4 mph 89 % 0.0 in
07:02 17.3 °F 15.5 °F 1017.2 in Calm   6.4 mph 89 % 0.0 in
07:12 17.4 °F 15.6 °F 1017.2 in SSW 3.2 mph 6.4 mph 89 % 0.0 in
07:17 17.3 °F 15.6 °F 1017.2 in SSW 3.2 mph 8.0 mph 90 % 0.0 in
07:22 17.2 °F 15.7 °F 1017.5 in SW 3.2 mph 8.0 mph 91 % 0.0 in
07:27 17.3 °F 15.8 °F 1017.5 in SSW 6.4 mph 8.0 mph 91 % 0.0 in
07:32 17.3 °F 15.8 °F 1017.5 in SSW 3.2 mph 9.7 mph 91 % 0.0 in
07:42 17.6 °F 15.9 °F 1017.5 in West 11.3 mph 14.5 mph 90 % 0.0 in
07:47 17.7 °F 15.9 °F 1017.5 in SSW 4.8 mph 16.1 mph 89 % 0.0 in
07:57 17.8 °F 15.8 °F 1017.5 in South 9.7 mph 16.1 mph 88 % 0.0 in
08:02 17.8 °F 15.8 °F 1017.5 in SW 12.9 mph 17.7 mph 88 % 0.0 in
08:12 18.1 °F 15.9 °F 1017.5 in SW 9.7 mph 17.7 mph 87 % 0.0 in
08:17 18.2 °F 16.0 °F 1017.5 in SSW 8.0 mph 17.7 mph 87 % 0.0 in
08:22 18.2 °F 15.8 °F 1017.5 in West 6.4 mph 20.9 mph 86 % 0.0 in
08:27 18.3 °F 15.9 °F 1017.5 in SW 9.7 mph 20.9 mph 86 % 0.0 in
08:32 18.4 °F 16.0 °F 1017.8 in SSW 6.4 mph 20.9 mph 86 % 0.0 in
08:37 18.4 °F 15.8 °F 1017.8 in SW 6.4 mph 19.3 mph 85 % 0.0 in
08:42 18.5 °F 15.9 °F 1017.8 in SW 6.4 mph 19.3 mph 85 % 0.0 in
08:47 18.6 °F 16.0 °F 1017.8 in SW 3.2 mph 17.7 mph 85 % 0.0 in
08:52 18.7 °F 16.1 °F 1017.8 in SW 9.7 mph 16.1 mph 85 % 0.0 in
08:57 18.8 °F 16.0 °F 1017.8 in WSW 8.0 mph 19.3 mph 84 % 0.0 in
09:02 19.1 °F 16.3 °F 1017.8 in West 3.2 mph 22.5 mph 84 % 0.0 in
09:12 19.3 °F 16.1 °F 1017.8 in West 8.0 mph 19.3 mph 82 % 0.0 in
09:17 19.4 °F 16.2 °F 1017.8 in SSW 8.0 mph 19.3 mph 82 % 0.0 in
09:22 19.4 °F 16.2 °F 1018.2 in NW 4.8 mph 20.9 mph 82 % 0.0 in
09:27 19.4 °F 16.2 °F 1018.2 in WSW 9.7 mph 20.9 mph 82 % 0.0 in
09:32 19.3 °F 16.1 °F 1018.2 in WSW 9.7 mph 20.9 mph 82 % 0.0 in
09:37 19.3 °F 16.3 °F 1018.2 in West 11.3 mph 17.7 mph 83 % 0.0 in
09:42 19.3 °F 16.1 °F 1018.2 in SW 11.3 mph 17.7 mph 82 % 0.0 in
09:47 19.4 °F 16.4 °F 1018.2 in SW 11.3 mph 17.7 mph 83 % 0.0 in
09:52 19.4 °F 16.2 °F 1018.2 in SW 3.2 mph 17.7 mph 82 % 0.0 in
09:57 19.6 °F 16.6 °F 1018.2 in WNW 1.6 mph 19.3 mph 83 % 0.0 in
10:02 19.7 °F 16.5 °F 1018.5 in West 9.7 mph 19.3 mph 82 % 0.0 in
10:12 19.9 °F 16.7 °F 1018.5 in SW 9.7 mph 19.3 mph 82 % 0.0 in
10:17 20.0 °F 16.8 °F 1018.5 in SW 12.9 mph 19.3 mph 82 % 0.0 in
10:22 20.1 °F 16.9 °F 1018.2 in WSW 3.2 mph 16.1 mph 82 % 0.0 in
10:32 20.3 °F 16.9 °F 1018.2 in West 8.0 mph 20.9 mph 81 % 0.0 in
10:37 20.4 °F 17.0 °F 1018.2 in SW 9.7 mph 20.9 mph 81 % 0.0 in
10:42 20.6 °F 17.2 °F 1018.2 in WSW 8.0 mph 19.3 mph 81 % 0.0 in
10:47 20.7 °F 17.1 °F 1018.2 in WSW 6.4 mph 19.3 mph 80 % 0.0 in
10:52 20.8 °F 17.2 °F 1018.2 in West 16.1 mph 19.3 mph 80 % 0.0 in
10:57 20.9 °F 17.3 °F 1018.2 in SW 8.0 mph 24.1 mph 80 % 0.0 in
11:02 21.0 °F 17.4 °F 1018.2 in SW 11.3 mph 25.7 mph 80 % 0.0 in
11:07 21.1 °F 17.5 °F 1018.2 in West 14.5 mph 25.7 mph 80 % 0.0 in
11:12 21.1 °F 17.3 °F 1018.2 in SW 12.9 mph 25.7 mph 79 % 0.0 in
11:17 21.0 °F 17.2 °F 1018.2 in West 4.8 mph 24.1 mph 79 % 0.0 in
11:22 21.0 °F 17.4 °F 1018.2 in SW 12.9 mph 24.1 mph 80 % 0.0 in
11:27 21.1 °F 17.7 °F 1018.2 in SW 14.5 mph 22.5 mph 81 % 0.0 in
11:32 21.2 °F 17.6 °F 1018.2 in SW 20.9 mph 22.5 mph 80 % 0.0 in
11:37 21.4 °F 17.6 °F 1018.2 in WSW 16.1 mph 25.7 mph 79 % 0.0 in
11:42 21.5 °F 17.7 °F 1018.2 in SSW 9.7 mph 25.7 mph 79 % 0.0 in
11:47 21.7 °F 17.7 °F 1018.2 in WSW 9.7 mph 25.7 mph 78 % 0.0 in
11:52 21.9 °F 18.1 °F 1018.2 in WSW 19.3 mph 24.1 mph 79 % 0.0 in
11:57 21.9 °F 17.9 °F 1018.2 in WSW 20.9 mph 24.1 mph 78 % 0.0 in
12:02 21.9 °F 17.9 °F 1018.2 in South 6.4 mph 24.1 mph 78 % 0.0 in
12:07 21.9 °F 18.1 °F 1018.2 in SW 3.2 mph 24.1 mph 79 % 0.0 in
12:12 22.1 °F 18.1 °F 1018.2 in WSW 11.3 mph 25.7 mph 78 % 0.0 in
12:17 22.5 °F 18.5 °F 1018.2 in West 9.7 mph 25.7 mph 78 % 0.0 in
12:22 22.6 °F 18.2 °F 1018.2 in SW 12.9 mph 27.4 mph 76 % 0.0 in
12:32 22.3 °F 18.1 °F 1018.5 in WSW 16.1 mph 29.0 mph 77 % 0.0 in
12:42 22.6 °F 18.6 °F 1018.5 in SW 17.7 mph 32.2 mph 78 % 0.0 in
12:47 22.7 °F 18.5 °F 1018.2 in WSW 17.7 mph 30.6 mph 77 % 0.0 in
12:52 22.6 °F 18.2 °F 1018.2 in West 17.7 mph 22.5 mph 76 % 0.0 in
12:57 22.6 °F 18.2 °F 1018.2 in WSW 6.4 mph 20.9 mph 76 % 0.0 in
13:02 22.7 °F 18.2 °F 1018.5 in SW 12.9 mph 24.1 mph 76 % 0.0 in
13:07 22.6 °F 18.2 °F 1018.5 in West 4.8 mph 24.1 mph 76 % 0.0 in
13:12 22.7 °F 18.2 °F 1018.2 in West 14.5 mph 24.1 mph 76 % 0.0 in
13:17 22.7 °F 18.2 °F 1018.5 in WSW 14.5 mph 24.1 mph 76 % 0.0 in
13:22 22.6 °F 18.2 °F 1018.2 in West 14.5 mph 24.1 mph 76 % 0.0 in
13:27 22.6 °F 18.2 °F 1018.5 in SW 6.4 mph 25.7 mph 76 % 0.0 in
13:32 22.6 °F 18.4 °F 1018.2 in SW 6.4 mph 25.7 mph 77 % 0.0 in
13:37 22.5 °F 18.3 °F 1018.2 in West 6.4 mph 25.7 mph 77 % 0.0 in
13:42 22.7 °F 18.5 °F 1018.2 in SW 14.5 mph 25.7 mph 77 % 0.0 in
13:47 22.9 °F 18.7 °F 1017.8 in WSW 11.3 mph 22.5 mph 77 % 0.0 in
13:52 23.1 °F 18.6 °F 1018.2 in WSW 19.3 mph 22.5 mph 76 % 0.0 in
13:57 23.2 °F 18.5 °F 1017.8 in WSW 11.3 mph 25.7 mph 75 % 0.0 in
14:02 23.3 °F 18.4 °F 1017.8 in WSW 14.5 mph 25.7 mph 74 % 0.0 in
14:07 23.4 °F 18.3 °F 1017.8 in SSW 17.7 mph 25.7 mph 73 % 0.0 in
14:12 23.4 °F 18.5 °F 1017.8 in West 8.0 mph 22.5 mph 74 % 0.0 in
14:17 23.5 °F 18.4 °F 1017.8 in WSW 12.9 mph 27.4 mph 73 % 0.0 in
14:22 23.6 °F 18.3 °F 1017.8 in WSW 14.5 mph 27.4 mph 72 % 0.0 in
14:27 23.9 °F 18.3 °F 1017.8 in West 11.3 mph 27.4 mph 71 % 0.0 in
14:32 23.9 °F 18.1 °F 1017.5 in SW 8.0 mph 25.7 mph 70 % 0.0 in
14:37 24.0 °F 18.4 °F 1017.8 in West 11.3 mph 25.7 mph 71 % 0.0 in
14:42 23.9 °F 18.3 °F 1017.8 in WSW 8.0 mph 25.7 mph 71 % 0.0 in
14:47 23.9 °F 18.1 °F 1017.5 in West 14.5 mph 27.4 mph 70 % 0.0 in
14:52 24.0 °F 18.2 °F 1017.5 in West 16.1 mph 27.4 mph 70 % 0.0 in
14:57 24.2 °F 18.2 °F 1017.5 in West 17.7 mph 27.4 mph 69 % 0.0 in
15:02 24.2 °F 18.6 °F 1017.5 in West 8.0 mph 27.4 mph 71 % 0.0 in
15:12 24.3 °F 18.7 °F 1017.5 in SSW 16.1 mph 24.1 mph 71 % 0.0 in
15:17 24.6 °F 19.0 °F 1017.5 in SW 12.9 mph 24.1 mph 71 % 0.0 in
15:22 24.6 °F 18.5 °F 1017.5 in SSW 25.7 mph 27.4 mph 69 % 0.0 in
15:27 24.3 °F 18.5 °F 1017.5 in West 17.7 mph 32.2 mph 70 % 0.0 in
15:37 24.9 °F 19.3 °F 1017.5 in WSW 22.5 mph 33.8 mph 71 % 0.0 in
15:42 25.2 °F 18.9 °F 1017.5 in West 20.9 mph 30.6 mph 68 % 0.0 in
15:47 25.0 °F 18.4 °F 1017.5 in WSW 20.9 mph 35.4 mph 67 % 0.0 in
15:52 25.0 °F 18.7 °F 1017.5 in SW 22.5 mph 35.4 mph 68 % 0.0 in
15:57 25.2 °F 18.9 °F 1017.5 in WSW 22.5 mph 35.4 mph 68 % 0.0 in
16:02 25.2 °F 18.6 °F 1017.2 in WSW 22.5 mph 33.8 mph 67 % 0.0 in
16:07 25.2 °F 18.4 °F 1017.2 in SW 32.2 mph 35.4 mph 66 % 0.0 in
16:12 24.9 °F 18.6 °F 1017.2 in WSW 24.1 mph 37.0 mph 68 % 0.0 in
16:17 24.9 °F 18.6 °F 1017.2 in WSW 12.9 mph 37.0 mph 68 % 0.0 in
16:22 24.9 °F 18.8 °F 1017.2 in SSW 11.3 mph 37.0 mph 69 % 0.0 in
16:32 25.3 °F 18.2 °F 1017.2 in SW 9.7 mph 27.4 mph 65 % 0.0 in
16:37 25.2 °F 18.4 °F 1016.8 in SW 25.7 mph 35.4 mph 66 % 0.0 in
16:42 25.1 °F 18.3 °F 1017.2 in SW 19.3 mph 35.4 mph 66 % 0.0 in
16:47 25.3 °F 18.2 °F 1016.8 in SW 22.5 mph 30.6 mph 65 % 0.0 in
16:52 25.3 °F 18.0 °F 1016.8 in SW 19.3 mph 32.2 mph 64 % 0.0 in
16:57 25.4 °F 17.6 °F 1016.8 in West 17.7 mph 32.2 mph 62 % 0.0 in
17:02 25.6 °F 17.5 °F 1016.8 in WSW 11.3 mph 32.2 mph 61 % 0.0 in
17:07 25.8 °F 18.2 °F 1016.8 in SW 17.7 mph 30.6 mph 63 % 0.0 in
17:12 25.9 °F 17.8 °F 1016.8 in WSW 9.7 mph 30.6 mph 61 % 0.0 in
17:17 26.1 °F 18.0 °F 1016.8 in West 9.7 mph 30.6 mph 61 % 0.0 in
17:22 26.1 °F 17.7 °F 1016.8 in WSW 29.0 mph 29.0 mph 60 % 0.0 in
17:27 26.1 °F 18.0 °F 1016.8 in West 20.9 mph 33.8 mph 61 % 0.0 in
17:32 26.1 °F 17.7 °F 1016.5 in WSW 12.9 mph 33.8 mph 60 % 0.0 in
17:37 26.3 °F 18.4 °F 1016.5 in SW 11.3 mph 33.8 mph 62 % 0.0 in
17:42 26.2 °F 18.3 °F 1016.5 in West 20.9 mph 29.0 mph 62 % 0.0 in
17:47 26.1 °F 18.2 °F 1016.5 in West 14.5 mph 29.0 mph 62 % 0.0 in
17:52 26.1 °F 18.0 °F 1016.5 in WSW 20.9 mph 33.8 mph 61 % 0.0 in
17:57 26.2 °F 18.3 °F 1016.5 in SSW 11.3 mph 38.6 mph 62 % 0.0 in
18:02 26.2 °F 18.1 °F 1016.5 in West 24.1 mph 38.6 mph 61 % 0.0 in
18:07 26.2 °F 18.1 °F 1016.5 in SW 29.0 mph 32.2 mph 61 % 0.0 in
18:12 26.0 °F 18.2 °F 1016.1 in SSW 22.5 mph 30.6 mph 62 % 0.0 in
18:22 25.8 °F 18.2 °F 1016.5 in SW 8.0 mph 32.2 mph 63 % 0.0 in
18:27 25.7 °F 17.9 °F 1016.5 in SW 16.1 mph 35.4 mph 62 % 0.0 in
18:32 25.7 °F 18.1 °F 1016.1 in WSW 12.9 mph 35.4 mph 63 % 0.0 in
18:37 25.8 °F 18.7 °F 1016.1 in SW 30.6 mph 30.6 mph 65 % 0.0 in
18:42 25.8 °F 18.5 °F 1016.1 in SW 17.7 mph 30.6 mph 64 % 0.0 in
18:47 25.8 °F 18.2 °F 1016.1 in WSW 20.9 mph 33.8 mph 63 % 0.0 in
18:52 25.9 °F 18.6 °F 1016.1 in SSW 17.7 mph 33.8 mph 64 % 0.0 in
18:57 25.7 °F 18.1 °F 1016.1 in WSW 9.7 mph 33.8 mph 63 % 0.0 in
19:02 25.6 °F 18.3 °F 1016.1 in WSW 19.3 mph 33.8 mph 64 % 0.0 in
19:07 25.3 °F 18.5 °F 1016.1 in SW 14.5 mph 32.2 mph 66 % 0.0 in
19:12 25.0 °F 18.4 °F 1016.1 in SW 9.7 mph 27.4 mph 67 % 0.0 in
19:17 25.0 °F 18.4 °F 1016.1 in West 8.0 mph 30.6 mph 67 % 0.0 in
19:22 24.9 °F 18.3 °F 1016.1 in SW 9.7 mph 30.6 mph 67 % 0.0 in
19:27 24.9 °F 18.6 °F 1016.1 in SW 25.7 mph 30.6 mph 68 % 0.0 in
19:32 24.8 °F 18.5 °F 1016.1 in SW 25.7 mph 32.2 mph 68 % 0.0 in
19:37 24.7 °F 18.6 °F 1016.1 in SW 12.9 mph 32.2 mph 69 % 0.0 in
19:42 24.8 °F 18.7 °F 1016.1 in SW 11.3 mph 32.2 mph 69 % 0.0 in
19:47 24.9 °F 18.1 °F 1016.1 in SW 17.7 mph 30.6 mph 66 % 0.0 in
19:52 25.2 °F 17.4 °F 1016.1 in SW 14.5 mph 30.6 mph 62 % 0.0 in
19:57 25.4 °F 17.3 °F 1016.1 in West 16.1 mph 30.6 mph 61 % 0.0 in
20:02 25.4 °F 16.8 °F 1016.5 in SW 22.5 mph 30.6 mph 59 % 0.0 in
20:12 24.9 °F 16.3 °F 1016.5 in West 17.7 mph 32.2 mph 59 % 0.0 in
20:17 24.8 °F 16.5 °F 1016.5 in West 19.3 mph 33.8 mph 60 % 0.0 in
20:22 24.7 °F 16.7 °F 1016.5 in WSW 17.7 mph 33.8 mph 61 % 0.0 in
20:27 24.5 °F 16.5 °F 1016.5 in SSW 11.3 mph 30.6 mph 61 % 0.0 in
20:32 24.3 °F 16.6 °F 1016.5 in WSW 12.9 mph 30.6 mph 62 % 0.0 in
20:37 24.1 °F 16.6 °F 1016.5 in WSW 19.3 mph 27.4 mph 63 % 0.0 in
20:42 23.9 °F 16.7 °F 1016.8 in West 14.5 mph 27.4 mph 64 % 0.0 in
20:47 23.8 °F 16.6 °F 1016.8 in WSW 17.7 mph 27.4 mph 64 % 0.0 in
20:52 23.8 °F 16.6 °F 1016.8 in SW 8.0 mph 22.5 mph 64 % 0.0 in
20:57 23.5 °F 16.5 °F 1016.8 in WSW 17.7 mph 22.5 mph 65 % 0.0 in
21:02 23.4 °F 16.2 °F 1016.8 in West 12.9 mph 22.5 mph 64 % 0.0 in
21:12 23.2 °F 16.3 °F 1016.8 in WSW 9.7 mph 29.0 mph 65 % 0.0 in
21:17 23.1 °F 16.4 °F 1016.8 in SW 6.4 mph 29.0 mph 66 % 0.0 in
21:22 22.9 °F 16.4 °F 1016.8 in SW 14.5 mph 20.9 mph 67 % 0.0 in
21:27 22.8 °F 16.4 °F 1016.8 in WSW 11.3 mph 20.9 mph 67 % 0.0 in
21:32 22.7 °F 16.5 °F 1016.8 in SW 9.7 mph 22.5 mph 68 % 0.0 in
21:37 22.6 °F 16.6 °F 1017.2 in WSW 11.3 mph 22.5 mph 69 % 0.0 in
21:42 22.5 °F 16.5 °F 1017.2 in WSW 12.9 mph 22.5 mph 69 % 0.0 in
21:47 22.4 °F 16.7 °F 1017.2 in SW 4.8 mph 22.5 mph 70 % 0.0 in
21:52 22.3 °F 16.6 °F 1017.2 in SW 11.3 mph 25.7 mph 70 % 0.0 in
21:57 22.2 °F 16.7 °F 1017.2 in SW 6.4 mph 25.7 mph 71 % 0.0 in
22:02 22.1 °F 16.6 °F 1017.2 in WSW 16.1 mph 22.5 mph 71 % 0.0 in
22:07 22.0 °F 16.7 °F 1017.2 in SW 12.9 mph 19.3 mph 72 % 0.0 in
22:12 21.8 °F 16.7 °F 1017.2 in West 6.4 mph 19.3 mph 73 % 0.0 in
22:17 21.7 °F 16.6 °F 1017.2 in SSW 8.0 mph 19.3 mph 73 % 0.0 in
22:22 21.5 °F 16.7 °F 1017.5 in SW 11.3 mph 17.7 mph 74 % 0.0 in
22:27 21.4 °F 16.6 °F 1017.5 in West 11.3 mph 17.7 mph 74 % 0.0 in
22:32 21.3 °F 16.5 °F 1017.5 in WSW 16.1 mph 19.3 mph 74 % 0.0 in
22:37 21.3 °F 16.5 °F 1017.5 in WSW 14.5 mph 19.3 mph 74 % 0.0 in
22:42 21.2 °F 16.4 °F 1017.5 in WSW 4.8 mph 19.3 mph 74 % 0.0 in
22:47 21.1 °F 16.5 °F 1017.8 in WSW 11.3 mph 16.1 mph 75 % 0.0 in
22:52 20.9 °F 16.3 °F 1017.5 in SSW 9.7 mph 17.7 mph 75 % 0.0 in
22:57 20.9 °F 16.3 °F 1017.5 in SW 4.8 mph 17.7 mph 75 % 0.0 in
23:02 20.8 °F 16.4 °F 1017.8 in WSW 11.3 mph 17.7 mph 76 % 0.0 in
23:07 20.7 °F 16.3 °F 1017.8 in WSW 8.0 mph 16.1 mph 76 % 0.0 in
23:17 20.4 °F 16.2 °F 1017.8 in WSW 8.0 mph 14.5 mph 77 % 0.0 in
23:22 20.2 °F 16.2 °F 1017.8 in SW 6.4 mph 14.5 mph 78 % 0.0 in
23:32 20.2 °F 16.2 °F 1017.8 in SW 8.0 mph 12.9 mph 78 % 0.0 in
23:42 20.0 °F 16.2 °F 1017.8 in WSW 4.8 mph 14.5 mph 79 % 0.0 in
23:47 19.9 °F 16.1 °F 1017.8 in WSW 4.8 mph 14.5 mph 79 % 0.0 in
23:52 19.8 °F 16.1 °F 1017.8 in WSW 3.2 mph 12.9 mph 79 % 0.0 in
23:57 19.7 °F 16.2 °F 1017.8 in SSW 4.8 mph 11.3 mph 80 % 0.0 in
Meteo18
Compliments of Weather Underground - 4 mb

Script developed by  Jim McMurry - jmcmurry@mwt.net Adapted for the template by  Wim van der Kuil - Leuven-Template.eu

You find our weather info also at:

European Weather Network

Weather Underground

Equipment we use:

Weather-station
Davis Vue

Weather-program
Meteobridge

Weather-server
Raspberry PI 2 B+

Provider
1 and 1

Davis Vue

Meteobridge

Raspberry PI 2 B+

1 and 1